Home   Weather   Gelendzhik   Past weeks

Flag for Russia Past Weather in Gelendzhik, Russia — Yesterday and Last 2 Weeks

Now
34 °F

Scattered clouds.


Feels Like: 31 °F
Forecast: 25 / 37 °F
Wind: 3 mph from North

Location: Anapa / Vitiazevo

Current Time: Jan 22, 2017 at 5:44:51 pm

Latest Report: Jan 22, 2017 at 5:00 pm


Visibility: N/A

Pressure: 30.45 "Hg

Humidity: 81%

Dew Point: 28 °F

Location of GelendzhikLocation

Past Weather in Gelendzhik — Graph

°F

Gelendzhik Temperature Yesterday

Maximum temperature yesterday: 41 °F (at 1:30 pm)
Minimum temperature yesterday: 16 °F (at 12:30 am)
Average temperature yesterday: 29 °F

High & Low Weather Summary for the Past Weeks

 TemperatureHumidityPressure
High54 °F (Jan 7, 4:00 pm)100% (Jan 8, 2:30 am)30.48 "Hg (Jan 8, 2:30 am)
Low16 °F (Jan 21, 12:30 am)58% (Jan 7, 10:30 pm)29.62 "Hg (Jan 7, 4:00 pm)
Average35 °F90%30.13 "Hg
* Reported Jan 7 4:00 pm — Jan 22 4:30 pm, Gelendzhik, Weather by CustomWeather, © 2017

Note: Actual official high and low records may vary slightly from our data, if they occured in-between our weather recording intervals... More about our weather records

Advertising

Gelendzhik Weather History for the Previous 24 Hours

Scroll right to see more
 ConditionsComfort  
Time TempWeatherWind HumidityBarometerVisibility
4:30 pm
Sun, Jan 22
36 °FPassing clouds.3 mph81%30.45 "HgN/A
4:00 pm37 °FPartly sunny.6 mph75%30.45 "HgN/A
3:30 pm37 °FScattered clouds.6 mph75%30.42 "HgN/A
3:00 pm37 °FPartly sunny.3 mph81%30.42 "HgN/A
2:30 pm37 °FPartly sunny.6 mph81%30.42 "HgN/A
2:00 pm37 °FBroken clouds.3 mph81%30.42 "HgN/A
1:30 pm37 °FBroken clouds.6 mph81%30.42 "HgN/A
1:00 pm36 °FPartly sunny.8 mph93%30.42 "HgN/A
12:30 pm36 °FScattered clouds.6 mph93%30.42 "HgN/A
12:00 pm36 °FBroken clouds.8 mph93%30.42 "HgN/A
11:30 am36 °FBroken clouds.10 mph100%30.42 "HgN/A
11:00 am34 °FPartly sunny.8 mph93%30.42 "HgN/A
10:30 am34 °FPartly sunny.6 mph93%30.42 "HgN/A
10:00 am34 °FPartly sunny.6 mph93%30.39 "HgN/A
9:30 am32 °FLow clouds.6 mph100%30.39 "HgN/A
9:00 am32 °FLow clouds.6 mph100%30.39 "Hg6 mi
8:30 am32 °FLow clouds.6 mph100%30.36 "Hg6 mi
8:00 am32 °FIce fog.6 mph100%30.36 "Hg3 mi
7:30 am32 °FSnow flurries. Ice fog.8 mph100%30.36 "Hg4 mi
7:00 am32 °FSnow. Overcast.8 mph100%30.33 "Hg1 mi
6:30 am32 °FLight snow. Overcast.6 mph100%30.33 "Hg4 mi
6:00 am32 °FLight snow. Overcast.8 mph100%30.33 "Hg2 mi
5:30 am32 °FSnow flurries. Overcast.8 mph93%30.33 "Hg5 mi
5:00 am32 °FChilly.8 mph93%30.30 "HgN/A
4:30 am32 °FChilly.6 mph93%30.30 "HgN/A
4:00 am32 °FChilly.8 mph93%30.30 "HgN/A
3:30 am32 °FSnow flurries. Overcast.6 mph93%30.30 "HgN/A
3:00 am32 °FChilly.3 mph93%30.30 "HgN/A
2:30 am32 °FSnow flurries. Overcast.3 mph93%30.30 "Hg6 mi
2:00 am32 °FSnow flurries. Overcast.6 mph93%30.30 "HgN/A
1:30 am32 °FChilly.6 mph93%30.30 "HgN/A
1:00 am32 °FSnow flurries. Overcast.6 mph93%30.30 "HgN/A
12:30 am32 °FLight snow. Overcast.6 mph93%30.30 "Hg6 mi
12:00 am32 °FLight snow. Overcast.3 mph93%30.30 "Hg4 mi
11:30 pm
Sat, Jan 21
30 °FLight snow. Overcast.3 mph100%30.30 "Hg6 mi
11:00 pm30 °FLight snow. Overcast.6 mph100%30.30 "Hg6 mi
10:30 pm30 °FLight snow. Overcast.6 mph100%30.30 "HgN/A
10:00 pm30 °FLight snow. Overcast.3 mph100%30.30 "Hg5 mi
9:30 pm30 °FLight snow. Overcast.3 mph93%30.30 "Hg2 mi
9:00 pm30 °FSnow flurries. Overcast.6 mph93%30.27 "Hg2 mi
8:30 pm30 °FChilly.3 mph100%30.27 "HgN/A
8:00 pm30 °FLight freezing rain. Overcast.3 mph100%30.27 "HgN/A
7:30 pm30 °FLight snow. Passing clouds.3 mph93%30.27 "Hg6 mi
7:00 pm30 °FLight snow. Passing clouds.3 mph93%30.27 "Hg6 mi
6:30 pm30 °FPassing clouds.8 mph93%30.27 "HgN/A
6:00 pm30 °FPassing clouds.8 mph93%30.27 "HgN/A
5:30 pm32 °FPassing clouds.10 mph87%30.27 "HgN/A
5:00 pm32 °FLight snow. Partly sunny.15 mph93%30.27 "Hg6 mi
Weather by CustomWeather, © 2017

See weather overviewHow to use our weather pages